This is the latest recevied weather packets stored in our database for station/object 4S6DRJ-13. If no packets are shown the sender has not sent any weather packets the latest 10 day(s).
| Time | Temp. | Humidity | Pressure | Rain* | Wind** | Luminosity | Snow |
|---|---|---|---|---|---|---|---|
| 1787808757 | 30.56° C | 74% | 1011 hPa | 0 mm | 0.89 m/s, 134° | 754 W/m² | - |
| 1787808696 | 30.56° C | 74% | 1011.1 hPa | 0 mm | 0.89 m/s, 234° | 895 W/m² | - |
| 1787808635 | 30° C | 75% | 1010.9 hPa | 0 mm | 1.34 m/s, 185° | 541 W/m² | - |
| 1787808574 | 30° C | 75% | 1010.9 hPa | 0 mm | 0.89 m/s, 342° | 832 W/m² | - |
| 1787808513 | 30° C | 75% | 1011 hPa | 0 mm | 1.79 m/s, 126° | 446 W/m² | - |
| 1787808452 | 30° C | 75% | 1011 hPa | 0 mm | 0.45 m/s, 203° | 429 W/m² | - |
| 1787808391 | 30° C | 74% | 1011.2 hPa | 0 mm | 0.89 m/s, 223° | 467 W/m² | - |
| 1787808330 | 30° C | 74% | 1010.9 hPa | 0 mm | 1.79 m/s, 326° | 465 W/m² | - |
| 1787808269 | 30° C | 74% | 1011 hPa | 0 mm | 1.79 m/s, 327° | 433 W/m² | - |
| 1787808208 | 30° C | 74% | 1011 hPa | 0 mm | 1.79 m/s, 235° | 538 W/m² | - |
| 1787808147 | 30° C | 74% | 1010.9 hPa | 0 mm | 0.89 m/s, 247° | 727 W/m² | - |
| 1787808086 | 30° C | 74% | 1011 hPa | 0 mm | 1.79 m/s, 339° | 579 W/m² | - |
| 1787808025 | 30° C | 75% | 1011 hPa | 0 mm | 1.34 m/s, 334° | 869 W/m² | - |
| 1787807964 | 30° C | 76% | 1011 hPa | 0 mm | 1.34 m/s, 227° | 793 W/m² | - |
| 1787807904 | 30° C | 76% | 1011 hPa | 0 mm | 2.24 m/s, 208° | 487 W/m² | - |
| 1787807842 | 30° C | 75% | 1011.1 hPa | 0 mm | 1.34 m/s, 181° | 1116 W/m² | - |
| 1787807781 | 30° C | 75% | 1011 hPa | 0 mm | 1.79 m/s, 221° | 409 W/m² | - |
| 1787807721 | 30° C | 75% | 1011 hPa | 0 mm | 1.79 m/s, 183° | 347 W/m² | - |
| 1787807659 | 30° C | 74% | 1011 hPa | 0 mm | 1.34 m/s, 205° | 314 W/m² | - |
| 1787807598 | 30° C | 74% | 1011 hPa | 0 mm | 1.34 m/s, 216° | 370 W/m² | - |
| 1787807538 | 30° C | 73% | 1011.2 hPa | 0 mm | 2.68 m/s, 260° | 658 W/m² | - |
| 1787807477 | 30.56° C | 73% | 1011.3 hPa | 0 mm | 3.13 m/s, 268° | 502 W/m² | - |
| 1787807416 | 30.56° C | 73% | 1011.2 hPa | 0 mm | 2.24 m/s, 284° | 901 W/m² | - |
| 1787807354 | 30.56° C | 73% | 1011.2 hPa | 0 mm | 3.13 m/s, 22° | 1120 W/m² | - |
| 1787807293 | 30.56° C | 73% | 1011.2 hPa | 0 mm | 2.68 m/s, 207° | 441 W/m² | - |
* Rain latest hour (hover to see other rain measurements)
** Current wind speed in m/s (hover to see current wind gust speed)